Weather History for KGCC - January, 2013

Change the Weather History Date:

Wednesday, January 23, 2013

  Actual Average Record
Temperature  
Mean Temperature 24 °F 26 °F  
Max Temperature 33 °F 37 °F 44 °F (2015)
Min Temperature 14 °F 15 °F 29 °F (2015)
Degree Days  
Heating Degree Days 41 39  
Month to date heating degree days 932 902  
Since 1 July heating degree days 3772 4043  
Cooling Degree Days 0 0  
Month to date cooling degree days 0 0  
Year to date cooling degree days 0 0  
Moisture  
Dew Point 16 °F    
Average Humidity 68    
Maximum Humidity 88    
Minimum Humidity 47    
Precipitation  
Precipitation 0.00 in 0.02 in 0.00 in (2015)
Month to date precipitation 0.15 0.26  
Year to date precipitation 0.15 0.26  
Sea Level Pressure  
Sea Level Pressure 30.15 in    
Wind  
Wind Speed 5 mph (SE)    
Max Wind Speed 28 mph    
Max Gust Speed 33 mph    
Visibility 10 miles    
Events      
T = Trace of Precipitation, MM = Missing Value Source: NWS Daily Summary

Daily Weather History Graph

Daily Weather History Graph

Search for Another Location

Airport or City:

Trip Planner

Search our weather history database for the weather conditions in past years. The results will help you decide how hot, cold, wet, or windy it might be!

Date:

Astronomy

Jan. 23, 2013 Rise Set
Actual Time 7:28 AM MST 4:59 PM MST
Civil Twilight 6:57 AM MST 5:31 PM MST
Nautical Twilight 6:22 AM MST 6:06 PM MST
Astronomical Twilight 5:47 AM MST 6:41 PM MST
Moon 2:10 PM MST (1/23) 4:44 AM MST (1/23)
Length of Visible Light 10h 34m
Length of Day
9h 30m
Waxing Gibbous, 89% of the Moon is Illuminated
Jan 23
Waxing Gibbous
Jan 26
Full
Feb 3
Last Quarter
Feb 10
New
Feb 17
First Quarter

Hourly Weather History & Observations

Time (MST) Temp. Windchill Dew Point Humidity Pressure Visibility Wind Dir Wind Speed Gust Speed Precip Events Conditions
12:53 AM 26.1 °F - 10.9 °F 53% 30.07 in 10.0 mi Calm Calm - N/A   Clear
1:53 AM 25.0 °F - 12.0 °F 58% 30.07 in 10.0 mi Calm Calm - N/A   Clear
2:53 AM 24.1 °F - 12.0 °F 60% 30.09 in 10.0 mi Calm Calm - N/A   Clear
3:53 AM 23.0 °F - 14.0 °F 68% 30.10 in 10.0 mi Calm Calm - N/A   Clear
4:53 AM 21.0 °F - 14.0 °F 74% 30.14 in 10.0 mi Calm Calm - N/A   Clear
5:53 AM 17.1 °F 10.0 °F 10.9 °F 77% 30.16 in 10.0 mi SW 4.6 mph - N/A   Clear
6:53 AM 18.0 °F - 10.9 °F 74% 30.19 in 10.0 mi Calm Calm - N/A   Clear
7:53 AM 16.0 °F - 12.0 °F 84% 30.23 in 10.0 mi Calm Calm - N/A   Clear
8:53 AM 24.1 °F - 17.1 °F 75% 30.23 in 10.0 mi Calm Calm - N/A   Clear
9:53 AM 27.0 °F - 17.1 °F 66% 30.24 in 10.0 mi Calm Calm - N/A   Clear
10:53 AM 28.0 °F - 17.1 °F 63% 30.24 in 10.0 mi Calm Calm - N/A   Clear
11:53 AM 30.9 °F - 17.1 °F 57% 30.20 in 10.0 mi Calm Calm - N/A   Clear
12:53 PM 32.0 °F 28.7 °F 17.1 °F 54% 30.19 in 10.0 mi NNE 3.5 mph - N/A   Clear
1:53 PM 33.1 °F 30.0 °F 19.0 °F 56% 30.17 in 10.0 mi NNE 3.5 mph - N/A   Clear
2:53 PM 32.0 °F 28.7 °F 21.0 °F 64% 30.18 in 10.0 mi ENE 3.5 mph - N/A   Clear
3:53 PM 30.9 °F 25.2 °F 19.9 °F 64% 30.17 in 10.0 mi ESE 5.8 mph - N/A   Clear
4:53 PM 28.9 °F 25.2 °F 19.9 °F 69% 30.17 in 10.0 mi East 3.5 mph - N/A   Clear
5:53 PM 30.0 °F 20.0 °F 21.0 °F 69% 30.15 in 10.0 mi SSE 12.7 mph - N/A   Clear
6:53 PM 27.0 °F 18.0 °F 18.0 °F 69% 30.15 in 10.0 mi SSE 9.2 mph - N/A   Clear
7:53 PM 26.1 °F 16.2 °F 17.1 °F 69% 30.14 in 10.0 mi SSE 10.4 mph - N/A   Clear
8:53 PM 24.1 °F 13.1 °F 16.0 °F 71% 30.11 in 10.0 mi SSE 11.5 mph - N/A   Clear
9:53 PM 21.9 °F 8.7 °F 15.1 °F 75% 30.09 in 10.0 mi South 15.0 mph 27.6 mph N/A   Clear
10:53 PM 21.9 °F 6.2 °F 15.1 °F 75% 30.06 in 10.0 mi South 21.9 mph 33.4 mph N/A   Clear
11:53 PM 21.9 °F 8.2 °F 14.0 °F 72% 30.05 in 10.0 mi SSE 16.1 mph 21.9 mph N/A   Clear